Regional Weather Roundup
Issued by NWS

Home | Current Version | Previous Version | Text Only | Print | Product List | Glossary Off
Versions: 1 2 3 4 5 6 7 8 9 10 11 12 13 14 15 16 17 18 19 20 21 22 23 24 25 26 27 28 29 30 31 32 33 34 35 36 37 38 39 40 41 42 43 44 45 46 47 48 49 50

000
ASUS43 KDTX 301310
RWRMI
MICHIGAN HOURLY REGIONAL WEATHER ROUNDUP
NATIONAL WEATHER SERVICE DETROIT/PONTIAC MI
900 AM EDT WED JUL 30 2014

NOTE: "FAIR" INDICATES FEW OR NO CLOUDS BELOW 12,000 FEET WITH NO
SIGNIFICANT WEATHER AND/OR OBSTRUCTION TO VISIBILITY.

MIZ047>049-052>055-059>063-066>070-074>076-081>083-301400-
SOUTHEAST LOWER MICHIGAN

CITY           SKY/WX    TMP DP  RH WIND       PRES   REMARKS
ADRIAN         PTSUNNY   62  59  90 CALM      30.02R
ALMA           MOSUNNY   60  58  92 N3        30.01S
ANN ARBOR      PTSUNNY   61  56  83 W5        30.01R
BAD AXE        SUNNY     61  58  90 NW5       29.99S
DETROIT CITY   PTSUNNY   64  56  75 CALM      29.99R
DETROIT        PTSUNNY   61  57  87 W5        30.01R
FLINT          CLOUDY    60  56  86 CALM      30.01R
GROSSE ILE     MOSUNNY   64  57  77 NW5       29.99R
HILLSDALE      MOSUNNY   62  60  96 W5        30.02S
HOWELL         CLOUDY    58  57  97 W3        30.01R FOG

CITY           SKY/WX    TMP DP  RH WIND       PRES   REMARKS
JACKSON        MOSUNNY   60  57  89 W6        30.02R
LAMBERTVILLE   PTSUNNY   63  59  88 CALM      30.02R
LANSING        CLOUDY    59  56  89 CALM      30.02S FOG
LAPEER         NOT AVBL
MASON          FOG       57  56  98 NW3       30.01S VSB 3/4
MONROE         PTSUNNY   63  57  82 W3        30.00R
MT. CLEMENS    MOSUNNY   62  58  87 NW5       29.98R
PONTIAC        PTSUNNY   59  55  87 NW6       30.00R
PORT HOPE        N/A     63  55  75 NW6       29.97R
PORT HURON     CLOUDY    59  59 100 W3        29.99R
TRI CITIES     PTSUNNY   62  57  83 NW6       30.01R
YPSILANTI      PTSUNNY   65  57  75 W3        30.01R
$$
MIZ043>046-050>051-056>058-064>065-071>073-077>080-301400-
SOUTHWEST LOWER MICHIGAN

CITY           SKY/WX    TMP DP  RH WIND       PRES   REMARKS
BATTLE CREEK   MOSUNNY   62  57  83 W7        30.03R
BENTON HARBOR  PTSUNNY   64  60  87 W6        30.02S
BIG RAPIDS     CLOUDY    61  61 100 CALM      30.00S
COLDWATER      MOSUNNY   62  60  93 W5        30.03R FOG
HOLLAND        CLOUDY    62  59  90 W5        30.02S
GRAND RAPIDS   PTSUNNY   61  58  90 W3        30.02R
KALAMAZOO      MOSUNNY   64  58  80 W6        30.02F
MARSHALL       SUNNY     60  57  88 W6        30.02S
MUSKEGON       CLOUDY    59  56  89 CALM      30.01S FOG
$$
MIZ016>042-301400-
NORTHERN LOWER MICHIGAN

CITY           SKY/WX    TMP DP  RH WIND       PRES   REMARKS
ALPENA         MOSUNNY   58  54  86 N7        29.99R
BEAVER ISLAND  CLOUDY    57  56  97 CALM      30.01S
BELLAIRE       CLOUDY    56  55  95 MISG      30.01S
CADILLAC       FOG       55  55 100 CALM      30.02R VSB 1/4
CHARLEVOIX     PTSUNNY   60  58  92 N6        30.03S
FRANKFORT      MOSUNNY   57  55  92 CALM      30.02S
GAYLORD        MOSUNNY   56  52  86 NW7       30.01R
GRAYLING       SUNNY     56  56 100 W6        30.01
HARBOR SPRINGS MOSUNNY   59  54  84 CALM      30.00S
HOUGHTON LAKE  SUNNY     57  52  83 NW6       30.02R
MANISTEE       SUNNY     57  55  94 W3        30.03R
OSCODA         SUNNY     58  54  85 NW7       29.98S
PELLSTON       MOSUNNY   58  54  86 CALM      30.00S
TRAVERSE CITY  PTSUNNY   60  55  83 W3        30.01R
$$
MIZ007>008-015-301400-
EASTERN UPPER MICHIGAN

CITY           SKY/WX    TMP DP  RH WIND       PRES   REMARKS
KINROSS        CLOUDY    52  50  93 NW5       30.00S VSB 3/4
MACKINAC ISLAN FOG       51  51 100 N8        30.00S VSB 1/2
NEWBERRY       CLOUDY    51  51 100 W10       30.01S FOG
S. S. MARIE    CLOUDY    50  49  96 NW5       30.00S FOG
$$
MIZ004>006-011>014-085-301400-
CENTRAL UPPER MICHIGAN

CITY           SKY/WX    TMP DP  RH WIND       PRES   REMARKS
MANISTIQUE     CLOUDY    52  52  99 N8        30.02R FOG
ESCANABA       SUNNY     54  48  82 NW5       30.03R
MENOMINEE      SUNNY     55  52  88 NW5       30.04R
SAWYER-GWINN   SUNNY     54  50  87 CALM      30.04S
$$
MIZ001>003-009>011-084-301400-
WESTERN UPPER MICHIGAN

CITY           SKY/WX    TMP DP  RH WIND       PRES   REMARKS
IRON MOUNTAIN  SUNNY     56  50  80 NW3       30.05R
HOUGHTON       SUNNY     56  50  80 W13       30.04R
COPPER HARBOR    N/A     57  50  77 CALM      30.03R
IRONWOOD       CLOUDY    54  54 100 SW3       30.05S VSB<1/4
$$

ABBREVIATIONS USED IN REMARKS
   TC - TEMPERATURE IN CELSIUS
  WCI - WIND CHILL INDEX
   HX - HEAT INDEX
  VSB - VISIBILITY



USA.gov is the U.S. government's official web portal to all federal, state and local government web resources and services.